THOR ABLESTAR DEB, 652

Orbit data source: Space-Track

THOR ABLESTAR DEB, 652 is space debris in LEO originally from a launch on Thu, 29 Jun 1961 UTC launched from the Air Force Eastern Test Range (AFETR). Debris objects in space refer to the collection of defunct objects orbiting the Earth. Examples of debris include non-operational satellites, rocket bodies, and fragments generated from explosions, collisions, or faulty payload assembly.

Loading next visibility...
Identifier
652, 1961-015HD
Orbit
LEO
Last TLE update
15 hours ago
Origin
Manufacturer
Unknown
Mission
Spacecraft
Bus & Motor
Unknown
Mass
Unknown
Launch date (UTC)
1961-06-29 (64 years ago)
Launch vehicle
Unknown
Launch site
Air Force Eastern Test Range (AFETR)
Object type
Payload
Rocket body
Debris
Shape & HBR
Unknown
Radar Cross Section
Small (<0.1 m²)

Expand to show TLE details & history

TLE from 15 hours ago
0 THOR ABLESTAR DEB
1 00652U 61015HD  25129.22220658  .00002201  00000-0  10992-2 0  9990
2 00652  66.7065  62.1806 0081372 285.7043  73.5083 14.16962878236591
Epoch: 2025-05-09T05:19Z
Definitive object data (Epoch: 2025-05-09T05:19:58.648Z)
Latitude
-0.00002°
Longitude
114.90478°
Altitude
821.513 km
Speed
7.451 km/s
True Right ascension
04h 08m 43s
True Declination
0° 00' 00"
Sunlit
Object was in daylight at TLE epoch
Visualization TLE readout
Latitude
-61.61229°
Longitude
-14.25437°
Altitude
808.683 km
Speed
7.474 km/s
Apparent Right ascension
17h 35m 33s
Apparent Declination
-53° 46' 19"
Sunlit
Object is in daylight
Visualization observer readout
Local Sidereal Time
04:15:58
Azimuth
217.501° SW
Elevation
-70.707°
Doppler factor
1
Orbital elements
Apogee altitude
892.713 km
Perigee altitude
775.34 km
Semi-major axis
7,212.163 km
Eccentricity
0.0081372
Inclination
66.7065°
RAAN
62.1806°
Arg. of periapsis
285.7043°
True anomaly
74.40495°
Mean anomaly
73.5083°
Eccentric anomaly
73.95637°
Mean motion
3.5436 °/min
BSTAR
0.0010992
Orbital period
101.59 mins
Loading maneuver chart data...
Loading SW <> Apogee altitude chart data...

THOR ABLESTAR DEB Visibility forecast

Observer location: undefined°, undefined°

Span
Click to sort rows by Start time (UTC) header in descending order
Start Az.
Max El. time (UTC)
Max El. Az.
Max El.
End time (UTC)
End Az.
10 mins2025-05-09 20:41:53.787Z186.68° SSW2025-05-09 20:46:53.787Z99.854° ESE38.664°2025-05-09 20:51:53.787Z38.796° NE
8 mins2025-05-09 22:27:53.787Z266.172° W2025-05-09 22:30:53.787Z304.971° NW23.523°2025-05-09 22:35:53.787Z6.514° NNE
10 mins2025-05-10 05:35:53.787Z346.465° N2025-05-10 05:40:53.787Z68.897° E35.115°2025-05-10 05:45:53.787Z126.987° SE
8 mins2025-05-10 07:20:53.787Z301.071° NW2025-05-10 07:24:53.787Z247.161° WSW25.22°2025-05-10 07:28:53.787Z198.736° SSW
|